"TOA5","MOW","CPU:UNC_MeetingWaters","DataHourly"
"TIMESTAMP","SondeTempC","SpCond","DOSat","DOmg","pH","Turb","BattVolt_Min"
"TS","","","","","","",""
"","Smp","Smp","Smp","Smp","Smp","Smp","Min"
"2006-03-01 00:00:00",9.52000045776,0.0,111.900001526,12.779999733,6.23999977112,28.1000003815,12.8999996185
"2006-03-01 01:00:00",9.39000034332,0.0,112.0,12.8199996948,6.23999977112,32.5999984741,12.8699998856
"2006-03-01 02:00:00",9.32999992371,0.0,112.0,12.8400001526,6.25,34.2999992371,12.8500003815
"2006-03-01 03:00:00",8.98999977112,0.0,112.0,12.9499998093,6.23999977112,20.7000007629,12.8299999237
"2006-03-01 04:00:00",8.67000007629,0.0,112.0,13.0500001907,6.28000020981,16.2999992371,12.8100004196
"2006-03-01 05:00:00",8.39000034332,0.0,112.0,13.1400003433,6.30999994278,14.8999996185,12.779999733
"2006-03-01 06:00:00",8.15999984741,0.0,112.199996948,13.2399997711,6.42000007629,14.5,12.7600002289
"2006-03-01 07:00:00",8.14999961853,0.0,112.199996948,13.2399997711,6.36000013351,14.8999996185,12.7399997711
"2006-03-01 08:00:00",7.96000003815,0.0,112.099998474,13.3000001907,6.48000001907,13.8999996185,12.7299995422
"2006-03-01 09:00:00",8.90999984741,0.0,112.5,13.0399999619,6.51000022888,13.6000003815,12.779999733
"2006-03-01 10:00:00",12.1000003815,0.0,111.900001526,12.0399999619,6.21000003815,13.1999998093,13.0500001907
"2006-03-01 11:00:00",14.2100000381,0.0,111.599998474,11.4399995804,5.98000001907,13.3999996185,13.220000267
"2006-03-01 12:00:00",16.3899993896,0.0,111.5,10.9200000763,5.55999994278,13.0,13.3000001907
"2006-03-01 13:00:00",14.279999733,0.00600000005215,134.600006104,13.779999733,8.18999958038,14.0,14.1000003815
"2006-03-01 14:00:00",15.4799995422,0.00499999988824,111.0,11.0799999237,7.88999986649,13.6000003815,14.1000003815
"2006-03-01 15:00:00",15.8199996948,0.00499999988824,110.800003052,10.9799995422,5.57000017166,13.3999996185,14.0699996948
"2006-03-01 16:00:00",17.3099994659,0.00200000009499,110.199996948,10.5799999237,5.78000020981,12.8999996185,13.4099998474
"2006-03-01 17:00:00",16.4599990845,0.0010000000475,110.699996948,10.8199996948,5.90000009537,12.6000003815,13.2299995422
"2006-03-01 18:00:00",15.8100004196,0.0,110.800003052,10.9799995422,6.19000005722,13.1000003815,13.0799999237
"2006-03-01 19:00:00",15.2600002289,0.0,110.5,11.0799999237,6.40999984741,13.6999998093,13.0100002289
"2006-03-01 20:00:00",13.8299999237,0.0010000000475,110.900001526,11.4799995422,6.42999982834,14.3000001907,12.9799995422
"2006-03-01 21:00:00",13.1300001144,0.0010000000475,111.099998474,11.6800003052,6.48000001907,14.8000001907,12.9600000381
"2006-03-01 22:00:00",12.7100000381,0.0010000000475,111.300003052,11.8000001907,6.57000017166,15.3000001907,12.9399995804
"2006-03-01 23:00:00",12.4300003052,0.0010000000475,111.300003052,11.8800001144,6.65000009537,15.6000003815,12.9300003052
"2006-03-02 00:00:00",12.1499996185,0.0010000000475,111.199996948,11.9499998093,6.86999988556,15.8000001907,12.9099998474
"2006-03-02 01:00:00",11.8900003433,0.0010000000475,111.400001526,12.029999733,6.86999988556,14.8000001907,12.8900003433
"2006-03-02 02:00:00",11.720000267,0.0010000000475,111.300003052,12.0699996948,6.82000017166,14.3999996185,12.8699998856
"2006-03-02 03:00:00",11.5699996948,0.0010000000475,111.199996948,12.1099996567,6.88999986649,13.6999998093,12.8599996567
"2006-03-02 04:00:00",12.0,0.0010000000475,111.199996948,11.9899997711,6.82999992371,13.6000003815,12.8400001526
"2006-03-02 05:00:00",12.1999998093,0.0010000000475,110.900001526,11.8999996185,6.76999998093,13.5,12.8299999237
"2006-03-02 06:00:00",11.5799999237,0.0010000000475,110.900001526,12.0699996948,6.80999994278,13.3000001907,12.8199996948
"2006-03-02 07:00:00",11.0200004578,0.0010000000475,111.0,12.2299995422,6.90000009537,12.8999996185,12.7899999619
"2006-03-02 08:00:00",10.6499996185,0.0010000000475,111.099998474,12.3500003815,7.01000022888,12.8000001907,12.7700004578
"2006-03-02 09:00:00",11.2399997711,0.0010000000475,111.400001526,12.2100000381,7.05000019073,12.8999996185,12.8400001526
"2006-03-02 10:00:00",14.0799999237,0.0,110.400001526,11.3599996567,6.38000011444,12.6000003815,13.0100002289
"2006-03-02 11:00:00",17.2399997711,0.0,111.599998474,10.7299995422,6.34000015259,12.5,14.1999998093
"2006-03-02 12:00:00",17.8799991608,0.0,109.599998474,10.3999996185,6.21999979019,12.3999996185,13.3800001144
"2006-03-02 13:00:00",21.9200000763,0.0,108.699996948,9.52000045776,5.94000005722,12.1999998093,14.0699996948
"2006-03-02 14:00:00",23.2399997711,0.0,107.800003052,9.19999980927,5.78000020981,11.6999998093,14.0100002289
"2006-03-02 15:00:00",23.1000003815,0.0,108.0,9.23999977112,5.80999994278,11.6000003815,13.9399995804
"2006-03-02 16:00:00",20.9400005341,0.0,108.699996948,9.69999980927,6.03000020981,11.6000003815,13.1400003433
"2006-03-02 17:00:00",20.6599998474,0.0,108.5,9.73999977112,6.17000007629,11.8000001907,13.2600002289
"2006-03-02 18:00:00",19.8099994659,0.0,108.5,9.90999984741,6.15000009537,11.8999996185,13.0699996948
"2006-03-02 19:00:00",19.4099998474,0.0,108.800003052,10.0100002289,6.15999984741,12.1999998093,13.0200004578
"2006-03-02 20:00:00",16.8799991608,0.0,109.400001526,10.6000003815,6.32999992371,12.8000001907,12.9899997711
"2006-03-02 21:00:00",16.4200000763,0.0,109.599998474,10.7299995422,6.65000009537,12.5,12.970000267
"2006-03-02 22:00:00",15.8599996567,0.0,109.800003052,10.8699998856,6.11999988556,13.6999998093,12.9499998093
"2006-03-02 23:00:00",15.1400003433,0.0,110.199996948,11.0799999237,6.32999992371,14.1999998093,12.9399995804
"2006-03-03 00:00:00",15.5799999237,0.0,110.599998474,11.0200004578,6.11000013351,15.0,12.9200000763
"2006-03-03 01:00:00",14.6400003433,0.0,110.699996948,11.25,6.67999982834,14.3000001907,12.9099998474
"2006-03-03 02:00:00",13.6099996567,0.0,110.900001526,11.529999733,6.25,13.6000003815,12.8900003433
"2006-03-03 03:00:00",12.3999996185,0.0,111.199996948,11.8699998856,6.71000003815,13.6999998093,12.8599996567
"2006-03-03 04:00:00",11.3999996185,0.0,111.5,12.1800003052,6.61999988556,13.3999996185,12.8400001526
"2006-03-03 05:00:00",10.2100000381,0.0,111.900001526,12.5699996948,6.42000007629,13.6999998093,12.8100004196
"2006-03-03 06:00:00",9.72999954224,0.0,112.0,12.720000267,6.57999992371,12.8999996185,12.7899999619
"2006-03-03 07:00:00",9.09000015259,0.0,112.099998474,12.9300003052,6.69999980927,12.8000001907,12.7700004578
"2006-03-03 08:00:00",8.07999992371,0.0,112.599998474,13.3100004196,6.57999992371,12.8000001907,12.75
"2006-03-03 09:00:00",8.5,0.0,112.699996948,13.1899995804,6.73999977112,13.6000003815,12.8599996567
"2006-03-03 10:00:00",9.5,0.0,112.599998474,12.8599996567,6.46000003815,13.0,13.029999733
"2006-03-03 11:00:00",12.8599996567,0.0,114.099998474,12.0600004196,6.61999988556,13.5,14.3999996185
"2006-03-03 12:00:00",12.8900003433,0.0,112.400001526,11.8800001144,6.32000017166,12.5,13.4200000763
"2006-03-03 13:00:00",13.6800003052,0.0,111.800003052,11.6099996567,6.0,12.5,14.3400001526
"2006-03-03 14:00:00",14.8900003433,0.0,111.099998474,11.2299995422,5.88999986649,12.3000001907,14.3199996948
"2006-03-03 15:00:00",14.0900001526,0.0,111.5,11.470000267,6.01000022888,12.6000003815,14.3500003815
"2006-03-03 16:00:00",13.6899995804,0.0,111.5,11.5799999237,5.73999977112,12.1000003815,13.5600004196
"2006-03-03 17:00:00",12.1000003815,0.0,111.900001526,12.029999733,5.90999984741,12.0,13.2299995422
"2006-03-03 18:00:00",11.1599998474,0.0,112.099998474,12.3199996948,6.11000013351,12.1999998093,13.0699996948
"2006-03-03 19:00:00",10.0399999619,0.0,112.199996948,12.6599998474,6.19999980927,12.1000003815,13.0
"2006-03-03 20:00:00",9.09000015259,0.0,112.400001526,12.970000267,6.51000022888,12.3999996185,12.9799995422
"2006-03-03 21:00:00",7.94000005722,0.0,112.400001526,13.3400001526,6.51000022888,12.3000001907,12.9499998093
"2006-03-03 22:00:00",7.25,0.0,112.699996948,13.6000003815,6.67999982834,12.6999998093,12.9200000763
"2006-03-03 23:00:00",5.80999994278,0.0,112.699996948,14.1000003815,6.48000001907,12.3000001907,12.8999996185
"2006-03-04 00:00:00",5.03000020981,0.0,112.800003052,14.3900003433,6.84999990463,12.5,12.8699998856
"2006-03-04 01:00:00",4.55999994278,0.0,112.699996948,14.5600004196,6.82999992371,12.6000003815,12.8500003815
"2006-03-04 02:00:00",3.68000006676,0.0,112.5,14.8800001144,7.03999996185,13.3000001907,12.8199996948
"2006-03-04 03:00:00",3.06999993324,0.0,112.800003052,15.1599998474,6.84000015259,14.3999996185,12.779999733
"2006-03-04 04:00:00",2.75999999046,0.0,112.599998474,15.2600002289,7.19000005722,14.0,12.7399997711
"2006-03-04 05:00:00",2.1099998951,0.0,112.599998474,15.529999733,7.17000007629,13.1999998093,12.720000267
"2006-03-04 06:00:00",0.980000019073,0.0,112.5,16.0100002289,7.21999979019,12.6000003815,12.6899995804
"2006-03-04 07:00:00",1.32000005245,0.0,112.5,15.8599996567,7.26000022888,12.5,12.6800003052
"2006-03-04 08:00:00",1.02999997139,0.0,112.699996948,16.0100002289,7.26000022888,12.3999996185,12.6599998474
"2006-03-04 09:00:00",2.30999994278,0.0,113.099998474,15.5100002289,6.90000009537,12.3999996185,12.8800001144
"2006-03-04 10:00:00",4.59000015259,0.0,112.900001526,14.5799999237,6.84999990463,12.5,13.029999733
"2006-03-04 11:00:00",8.48999977112,0.0,116.099998474,13.5900001526,6.76000022888,12.6999998093,14.5100002289
"2006-03-04 12:00:00",8.98999977112,0.0,113.400001526,13.1099996567,6.34999990463,12.3999996185,13.4300003052
"2006-03-04 13:00:00",11.529999733,0.0,112.300003052,12.2299995422,6.0,12.1999998093,14.4399995804
"2006-03-04 14:00:00",13.7899999619,0.0,111.5,11.5500001907,4.82999992371,11.8000001907,13.6599998474
"2006-03-04 15:00:00",13.6499996185,0.0,111.400001526,11.5699996948,5.5,11.8000001907,14.3800001144
"2006-03-04 16:00:00",13.5699996948,0.0,111.599998474,11.6199998856,5.51000022888,11.6000003815,13.5500001907
"2006-03-04 17:00:00",12.25,0.0,112.099998474,12.0200004578,5.86000013351,11.6999998093,13.220000267
"2006-03-04 18:00:00",11.25,0.0,112.099998474,12.2899999619,6.05000019073,11.6999998093,13.0900001526
"2006-03-04 19:00:00",9.78999996185,0.0,112.0,12.7100000381,6.21999979019,11.6999998093,13.029999733
"2006-03-04 20:00:00",7.88999986649,0.0,112.199996948,13.3199996948,6.53999996185,12.0,13.0
"2006-03-04 21:00:00",7.0,0.0,112.400001526,13.6499996185,6.86000013351,12.1999998093,12.970000267
"2006-03-04 22:00:00",6.61000013351,0.0,112.599998474,13.8100004196,6.59000015259,12.3000001907,12.9399995804
"2006-03-04 23:00:00",6.55999994278,0.0,112.699996948,13.8299999237,6.84999990463,12.1999998093,12.9200000763
"2006-03-05 00:00:00",5.73000001907,0.0,112.599998474,14.1099996567,6.73000001907,12.0,12.8900003433
"2006-03-05 01:00:00",5.0,0.0,112.699996948,14.3900003433,6.51999998093,11.8999996185,12.8599996567
"2006-03-05 02:00:00",4.90000009537,0.0,112.699996948,14.4300003052,6.88000011444,12.0,12.8400001526
"2006-03-05 03:00:00",4.28999996185,0.0,112.699996948,14.6700000763,6.80000019073,11.8999996185,12.8000001907
"2006-03-05 04:00:00",3.65000009537,0.0,112.699996948,14.9099998474,7.03999996185,12.5,12.7700004578
"2006-03-05 05:00:00",3.3599998951,0.0,112.5,15.0,7.11000013351,11.8999996185,12.7299995422
"2006-03-05 06:00:00",2.17000007629,0.0,112.300003052,15.4600000381,7.23000001907,12.1000003815,12.6999998093
"2006-03-05 07:00:00",2.06999993324,0.0,112.400001526,15.5100002289,7.34999990463,11.8000001907,12.6800003052
"2006-03-05 08:00:00",1.59000003338,0.0,112.300003052,15.7100000381,7.51000022888,11.8999996185,12.6599998474
"2006-03-05 09:00:00",1.37999999523,0.0,112.900001526,15.8800001144,7.53999996185,11.8000001907,12.8800001144
"2006-03-05 10:00:00",5.90999984741,0.0,113.099998474,14.1099996567,6.67000007629,11.8000001907,13.1000003815
"2006-03-05 11:00:00",10.5399999619,0.0,116.599998474,13.0,6.76999998093,11.6999998093,14.4399995804
"2006-03-05 12:00:00",11.0200004578,0.0,113.099998474,12.470000267,6.48000001907,11.6000003815,13.3999996185
"2006-03-05 13:00:00",13.5399999619,0.0,111.800003052,11.6499996185,5.82000017166,11.5,14.3500003815
"2006-03-05 14:00:00",16.0,0.0,110.699996948,10.9300003052,5.80999994278,11.6000003815,13.5600004196
"2006-03-05 15:00:00",15.4600000381,0.0,110.800003052,11.0600004196,5.65999984741,11.5,14.2700004578
"2006-03-05 16:00:00",15.3400001526,0.0,111.0,11.1099996567,5.44000005722,11.0,13.5
"2006-03-05 17:00:00",13.5699996948,0.0,111.300003052,11.5799999237,5.44999980927,11.1999998093,13.3199996948
"2006-03-05 18:00:00",12.3699998856,0.0,111.5,11.9200000763,6.19999980927,11.3000001907,13.1199998856
"2006-03-05 19:00:00",10.6700000763,0.0,111.400001526,12.3800001144,6.55000019073,11.3000001907,13.0399999619
"2006-03-05 20:00:00",9.72999954224,0.0,111.900001526,12.7100000381,6.76999998093,11.3000001907,13.0100002289
"2006-03-05 21:00:00",8.81000041962,0.0,112.099998474,13.0200004578,6.84000015259,11.1999998093,12.9899997711
"2006-03-05 22:00:00",8.81999969482,0.0,111.800003052,12.9799995422,6.90000009537,11.3000001907,12.9600000381
"2006-03-05 23:00:00",8.43000030518,0.0,111.900001526,13.1199998856,6.67999982834,11.6000003815,12.9399995804
"2006-03-06 00:00:00",8.55000019073,0.0,111.800003052,13.0600004196,6.90000009537,11.8000001907,12.9200000763
"2006-03-06 01:00:00",8.30000019073,0.0,111.699996948,13.1300001144,6.78999996185,11.6999998093,12.8999996185
"2006-03-06 02:00:00",8.52999973297,0.0,111.400001526,13.029999733,6.90000009537,11.5,12.8699998856
"2006-03-06 03:00:00",8.28999996185,0.0,111.599998474,13.1300001144,6.76000022888,12.0,12.8500003815
"2006-03-06 04:00:00",8.27999973297,0.0,111.5,13.1199998856,6.71999979019,11.3999996185,12.8199996948
"2006-03-06 05:00:00",8.15999984741,0.0,111.599998474,13.1599998474,6.84999990463,11.6000003815,12.7899999619
"2006-03-06 06:00:00",8.14999961853,0.0,111.400001526,13.1499996185,6.90000009537,11.5,12.7600002289
"2006-03-06 07:00:00",7.76000022888,0.0,111.5,13.279999733,6.84000015259,11.3999996185,12.7399997711
"2006-03-06 08:00:00",7.65000009537,0.0,111.300003052,13.2899999619,7.01999998093,11.8999996185,12.7299995422
"2006-03-06 09:00:00",6.69000005722,0.0,111.099998474,13.5900001526,7.13000011444,12.0,12.720000267
"2006-03-06 10:00:00",9.39000034332,0.275999993086,108.800003052,12.4499998093,8.46000003815,31.7000007629,12.8599996567
"2006-03-06 11:00:00",10.6199998856,0.244000002742,103.0,11.4499998093,8.42000007629,219.800003052,12.8299999237
"2006-03-06 12:00:00",10.5100002289,0.228000000119,102.0,11.3699998856,8.32999992371,147.0,12.8999996185
"2006-03-06 13:00:00",11.5799999237,0.193000003695,101.699996948,11.0600004196,8.17000007629,274.299987793,12.8500003815
"2006-03-06 14:00:00",12.4399995804,0.215000003576,99.0,10.5600004196,7.98000001907,138.100006104,12.9600000381
"2006-03-06 15:00:00",11.3000001907,0.0140000004321,106.400001526,11.6499996185,8.19999980927,100.400001526,13.2700004578
"2006-03-06 16:00:00",10.6000003815,0.0120000001043,112.800003052,12.5500001907,8.28999996185,80.0,13.2100000381
"2006-03-06 17:00:00",10.4799995422,0.0120000001043,110.300003052,12.3199996948,8.28999996185,78.5,13.0500001907
"2006-03-06 18:00:00",9.96000003815,0.0120000001043,111.099998474,12.5500001907,8.28999996185,72.9000015259,12.9200000763
"2006-03-06 19:00:00",8.81000041962,0.0109999999404,111.099998474,12.9099998474,8.30000019073,71.1999969482,12.8000001907
"2006-03-06 20:00:00",8.32999992371,0.0109999999404,111.400001526,13.0900001526,8.32999992371,62.7999992371,12.7600002289
"2006-03-06 21:00:00",7.88999986649,0.0109999999404,111.400001526,13.2299995422,8.35999965668,53.2999992371,12.7299995422
"2006-03-06 22:00:00",7.26000022888,0.00999999977648,111.800003052,13.4899997711,8.38000011444,44.2000007629,12.720000267
"2006-03-06 23:00:00",7.23999977112,0.0120000001043,112.0,13.5100002289,8.39000034332,38.7000007629,12.7100000381
"2006-03-07 00:00:00",6.82999992371,0.0120000001043,111.800003052,13.6300001144,8.39000034332,36.0999984741,12.6999998093
"2006-03-07 01:00:00",6.92999982834,0.0109999999404,112.099998474,13.6300001144,8.39999961853,38.4000015259,12.6999998093
"2006-03-07 02:00:00",6.71000003815,0.00899999961257,112.0,13.6899995804,8.39000034332,36.2000007629,12.6999998093
"2006-03-07 03:00:00",6.09000015259,0.00899999961257,112.099998474,13.9300003052,8.40999984741,29.1000003815,12.6899995804
"2006-03-07 04:00:00",6.09000015259,0.00999999977648,112.599998474,13.9799995422,8.42000007629,22.7000007629,12.6899995804
"2006-03-07 05:00:00",6.30000019073,0.00899999961257,112.5,13.8999996185,8.39999961853,17.7999992371,12.6800003052
"2006-03-07 06:00:00",5.98999977112,0.00899999961257,112.699996948,14.029999733,8.43000030518,16.6000003815,12.6800003052
"2006-03-07 07:00:00",7.01999998093,0.00899999961257,100.599998474,12.1999998093,8.72000026703,17.7000007629,12.6700000763
"2006-03-07 08:00:00",6.75,0.00899999961257,102.099998474,12.4799995422,8.64000034332,18.2999992371,12.6700000763
"2006-03-07 09:00:00",6.17000007629,0.00999999977648,107.400001526,13.3100004196,8.68000030518,19.7999992371,12.779999733
"2006-03-07 10:00:00",6.44000005722,0.00999999977648,112.900001526,13.9099998474,8.60000038147,23.1000003815,12.9499998093
"2006-03-07 11:00:00",9.57999992371,0.00899999961257,116.099998474,13.2399997711,8.27999973297,21.2999992371,14.6300001144
"2006-03-07 12:00:00",10.029999733,0.00600000005215,113.0,12.75,6.36000013351,18.6000003815,13.470000267
"2006-03-07 13:00:00",12.0399999619,0.00400000018999,112.199996948,12.0900001526,6.76000022888,17.2999992371,14.3800001144
"2006-03-07 14:00:00",13.970000267,0.0,111.300003052,11.470000267,6.78999996185,16.5,14.3500003815
"2006-03-07 15:00:00",14.1599998474,0.0,110.800003052,11.3800001144,6.32000017166,17.2999992371,14.3100004196
"2006-03-07 16:00:00",13.9799995422,0.0,111.400001526,11.4899997711,5.36000013351,17.5,13.5399999619
"2006-03-07 17:00:00",12.2899999619,0.0109999999404,125.599998474,13.4499998093,8.71000003815,17.6000003815,13.2299995422
"2006-03-07 18:00:00",8.89999961853,0.00899999961257,112.199996948,13.0,8.52000045776,13.8000001907,13.1000003815
"2006-03-07 19:00:00",9.72999954224,0.00800000037998,112.099998474,12.7299995422,8.32999992371,13.0,13.0500001907
"2006-03-07 20:00:00",8.47999954224,0.00800000037998,112.300003052,13.1400003433,8.31000041962,13.1000003815,13.0100002289
"2006-03-07 21:00:00",7.80000019073,0.00800000037998,112.400001526,13.3800001144,8.34000015259,16.2000007629,12.9899997711
"2006-03-07 22:00:00",6.80000019073,0.00800000037998,112.199996948,13.6899995804,8.43000030518,21.1000003815,12.9600000381
"2006-03-07 23:00:00",5.26000022888,0.00800000037998,112.0,14.1999998093,8.51000022888,19.2999992371,12.9300003052
"2006-03-08 00:00:00",5.36000013351,0.00800000037998,112.5,14.2299995422,8.59000015259,18.1000003815,12.9099998474
"2006-03-08 01:00:00",4.40000009537,0.00800000037998,113.0,14.6499996185,8.64999961853,15.8000001907,12.8900003433
"2006-03-08 02:00:00",4.26999998093,0.00800000037998,112.5,14.6499996185,8.68999958038,14.0,12.8699998856
"2006-03-08 03:00:00",3.65000009537,0.00800000037998,112.900001526,14.9399995804,8.73999977112,14.3999996185,12.8500003815
"2006-03-08 04:00:00",3.13000011444,0.00800000037998,112.599998474,15.1099996567,8.77000045776,13.1000003815,12.8299999237
"2006-03-08 05:00:00",2.70000004768,0.00800000037998,112.800003052,15.3000001907,8.80000019073,12.6999998093,12.8199996948
"2006-03-08 06:00:00",1.72000002861,0.0130000002682,113.0,15.7399997711,8.81000041962,12.1999998093,12.8100004196
"2006-03-08 07:00:00",2.1099998951,0.0130000002682,113.0,15.5799999237,8.81000041962,11.6999998093,12.7899999619
"2006-03-08 08:00:00",1.76999998093,0.0130000002682,113.300003052,15.7700004578,8.80000019073,11.5,12.779999733
"2006-03-08 09:00:00",1.52999997139,0.0120000001043,114.199996948,16.0,8.77000045776,11.3000001907,12.9200000763
"2006-03-08 10:00:00",3.75999999046,0.00800000037998,114.599998474,15.1199998856,8.60999965668,11.3000001907,13.1899995804
"2006-03-08 11:00:00",9.82999992371,0.00700000021607,118.199996948,13.3900003433,8.42000007629,11.3000001907,14.4899997711
"2006-03-08 12:00:00",10.8800001144,0.00499999988824,113.300003052,12.529999733,5.73000001907,11.1999998093,13.5799999237
"2006-03-08 13:00:00",13.8000001907,0.00400000018999,111.400001526,11.5399999619,6.61000013351,10.8000001907,14.2700004578
"2006-03-08 14:00:00",15.8699998856,0.0,110.5,10.9399995804,6.26999998093,11.5,13.5
"2006-03-08 15:00:00",15.8299999237,0.0,110.699996948,10.9600000381,6.84999990463,10.8999996185,13.4600000381
"2006-03-08 16:00:00",15.6999998093,0.0,110.599998474,10.9799995422,6.69999980927,10.8000001907,13.4200000763
"2006-03-08 17:00:00",14.2600002289,0.0,111.0,11.3800001144,6.98000001907,10.8999996185,13.4399995804
"2006-03-08 18:00:00",13.2299995422,0.0,111.300003052,11.6700000763,6.73000001907,10.6999998093,13.1199998856
"2006-03-08 19:00:00",12.7100000381,0.0,111.400001526,11.8199996948,7.42999982834,10.8999996185,13.0500001907
"2006-03-08 20:00:00",11.9799995422,0.0,111.599998474,12.0399999619,7.46999979019,11.5,13.0200004578
"2006-03-08 21:00:00",11.3199996948,0.0,111.599998474,12.220000267,7.44999980927,10.8999996185,13.0
"2006-03-08 22:00:00",10.9300003052,0.0,111.800003052,12.3400001526,7.34999990463,14.0,12.9799995422
"2006-03-08 23:00:00",9.85000038147,0.0,111.800003052,12.6599998474,7.61000013351,23.7000007629,12.9600000381
"2006-03-09 00:00:00",8.89999961853,0.0,112.199996948,13.0,7.65999984741,27.2999992371,12.9300003052
"2006-03-09 01:00:00",9.10000038147,0.0,112.099998474,12.9200000763,7.26999998093,22.7000007629,12.8999996185
"2006-03-09 02:00:00",7.69000005722,0.0,112.300003052,13.3999996185,7.59999990463,17.7000007629,12.8800001144
"2006-03-09 03:00:00",7.44000005722,0.0,112.599998474,13.5200004578,7.55999994278,15.8999996185,12.8599996567
"2006-03-09 04:00:00",8.06000041962,0.0,112.5,13.3100004196,7.46999979019,13.3000001907,12.8400001526
"2006-03-09 05:00:00",7.59000015259,0.0,112.099998474,13.4200000763,7.51000022888,12.3000001907,12.8299999237
"2006-03-09 06:00:00",6.90999984741,0.0,112.400001526,13.6800003052,7.53999996185,11.6999998093,12.8100004196
"2006-03-09 07:00:00",6.11999988556,0.0,112.400001526,13.9499998093,7.63000011444,11.6000003815,12.7899999619
"2006-03-09 08:00:00",6.34999990463,0.0010000000475,112.699996948,13.8999996185,7.78999996185,11.3999996185,12.779999733
"2006-03-09 09:00:00",7.01999998093,0.0010000000475,112.900001526,13.6999998093,7.67999982834,11.3000001907,12.8800001144
"2006-03-09 10:00:00",9.85000038147,0.0010000000475,112.599998474,12.7600002289,7.09000015259,11.5,13.1300001144
"2006-03-09 11:00:00",15.470000267,0.0,113.900001526,11.3699998856,6.57999992371,10.8000001907,14.3299999237
"2006-03-09 12:00:00",16.1200008392,0.0,110.699996948,10.9099998474,6.53999996185,10.8000001907,14.1999998093
"2006-03-09 13:00:00",17.3799991608,0.0,109.699996948,10.5200004578,6.57999992371,10.8999996185,14.1599998474
"2006-03-09 14:00:00",18.7700004578,0.0,109.300003052,10.1800003052,6.15999984741,10.6000003815,14.1300001144
"2006-03-09 15:00:00",18.1800003052,0.0,109.0,10.2899999619,6.09000015259,10.8000001907,14.1099996567
"2006-03-09 16:00:00",18.5699996948,0.0,109.099998474,10.2100000381,6.32999992371,24.0,14.1000003815
"2006-03-09 17:00:00",17.5400009155,0.0,107.099998474,10.2399997711,6.65000009537,10.8000001907,13.4200000763
"2006-03-09 18:00:00",16.6100006104,0.0,116.400001526,11.3400001526,6.78999996185,81.5,13.1599998474
"2006-03-09 19:00:00",15.6800003052,0.0,108.699996948,10.8000001907,6.86000013351,20.5,13.0500001907
"2006-03-09 20:00:00",14.5,0.0,109.400001526,11.1499996185,6.94000005722,20.6000003815,13.029999733
"2006-03-09 21:00:00",14.6499996185,0.0,109.5,11.1199998856,6.5,15.8999996185,13.0
"2006-03-09 22:00:00",14.6000003815,0.0,109.699996948,11.1599998474,6.82999992371,14.0,12.9799995422
"2006-03-09 23:00:00",14.6000003815,0.0,109.800003052,11.1700000763,6.90999984741,12.3000001907,12.9600000381